Preview of NWS' New Version of Forecast
This preview is not operational and should not be used for support decisions.

Terminal Aerodrome Forecast (TAF)

Issued by National Weather Service (NWS)

                            
000
FTUS41 KGYX 240522
TAFRKD
TAF
KRKD 240522Z 2406/2506 31003KT P6SM SKC
     FM241400 02007KT P6SM FEW050 SCT100=